sat.trackr.live / text

‹ back to catalog

O3B PFM

NORAD 39191 · 2013-031D

PAYLOAD ACTIVE UNKNOWN

§ Identity

Operator
Country
O3B
Launch date
2013-06-25
Launch site
FRGUI
Launch vehicle
Mass (kg)
RCS (m²)
45.13

Purposes: comms

External: N2YO · Heavens-Above · Gunter

§ Orbital elements

Epoch: 2026-05-24T20:26:40.921728Z

Period
287.93 min
Inclination
0.0689°
Eccentricity
0.0005388
Mean motion
5.00116044 rev/d
Perigee alt
8,058.1 km
Apogee alt
8,073.7 km
Semi-major
14,444.0 km
B*
0.0000e+0
RAAN
356.5782°
Arg perigee
66.0666°
Mean anomaly
297.4094°
Rev number
23,550

§ Raw data

O3B PFM1 39191U 13031D   26144.85186252 -.00000024  00000+0  00000+0 0  99902 39191   0.0689 356.5782 0005388  66.0666 297.4094  5.00116044235509

JSON: /api/v1/satellites/39191 · /tle

For live sub-satellite position, see the globe view (requires WebGL).

§ Visibility from observer

Set your observer location to see the next 7 days of passes ≥ 10°. The values pass through the URL so the page stays shareable.

No JS? Fill the form by hand. The geolocation button needs JavaScript.